Regional Weather Roundup
Issued by NWS Charleston, WV

Home | Current Version | Previous Version | Graphics & Text | Print | Product List | Glossary On
Versions: 1 2 3 4 5 6 7 8 9 10 11 12 13 14 15 16 17 18 19 20 21 22 23 24 25 26 27 28 29 30 31 32 33 34 35 36 37 38 39 40 41 42 43 44 45 46 47 48 49 50
000
ASUS41 KRLX 110810
RWRRLX
West Virginia Regional Weather Roundup
National Weather Service Charleston WV
300 AM EST MON DEC 11 2017

Note: "fair" indicates few or no clouds below 12,000 feet with no
significant weather and/or obstructions to visibility.

WVZ003-110900-
Northern Panhandle of West Virginia

CITY           SKY/WX    TMP DP  RH WIND       PRES   REMARKS
WHEELING       CLOUDY    32  18  56 W10       29.99R
$$

WVZ009-110900-
Northwest West Virginia

CITY           SKY/WX    TMP DP  RH WIND       PRES   REMARKS
PARKERSBURG    CLOUDY    36  19  50 W9G16     30.07R
$$

WVZ006-110900-
Western West Virginia

CITY           SKY/WX    TMP DP  RH WIND       PRES   REMARKS
HUNTINGTON     CLEAR     32  17  54 SW5       30.10R
$$

WVZ015-110900-
West Central West Virginia

CITY           SKY/WX    TMP DP  RH WIND       PRES   REMARKS
CHARLESTON     CLOUDY    38  19  46 W12G18    30.08R
$$

WVZ022-031-110900-
North Central West Virginia

CITY           SKY/WX    TMP DP  RH WIND       PRES   REMARKS
CLARKSBURG     CLOUDY    36  18  48 SW9       30.02R
MORGANTOWN     CLOUDY    34  17  50 SW6       30.01R
$$

WVZ025-035-042-045-110900-
Southern West Virginia

CITY           SKY/WX    TMP DP  RH WIND       PRES   REMARKS
BECKLEY        NOT AVBL
LOGAN            N/A     36  19  51 CALM      30.07S
BLUEFIELD      CLOUDY    30  17  58 W13G21    30.02R
LEWISBURG      CLOUDY    33  18  55 W9        30.01S
$$

WVZ047-110900-
Northern Mountains of West Virginia

CITY           SKY/WX    TMP DP  RH WIND       PRES   REMARKS
ELKINS         CLOUDY    34  17  50 W16G22    29.99S
$$

WVZ052-110900-
Eastern Panhandle of West Virginia

CITY           SKY/WX    TMP DP  RH WIND       PRES   REMARKS
MARTINSBURG    CLOUDY    36  19  50 VRB3      30.00R
PETERSBURG     CLOUDY    38  19  46 SW7G23    29.98R
$$



USA.gov is the U.S. government's official web portal to all federal, state and local government web resources and services.